TRA083 EHAM-LIRF

Flight info

Callsign TRA083
Flight time N/A
Altitude 37000
Route RENDI2S EDUPO Z739 MISGO DCT ASBON DCT TUSUK DCT ULNOK L607 ABUKA DCT TEDGO DCT BATUB DCT TIRUL M738 NATAG DCT LORLO DCT GAVRA DCT RITEB RITEB4C
Aircraft B738/M-SDE2E3FGHIRWXY/LB1

Departure

Time N/A
Airport Amsterdam Airport Schiphol (EHAM)

Arrival

Time 2026-02-17 12:41
Airport Rome–Fiumicino Leonardo da Vinci International Airport (LIRF)
Time Latitude Longitude Altitude Speed Heading
2026-02-17 12:02 45.43305 11.19603 40760 ft 505 kts 169°
2026-02-17 12:02 45.36527 11.22251 40751 ft 505 kts 169°
2026-02-17 12:03 45.26368 11.26207 40738 ft 504 kts 169°
2026-02-17 12:03 45.19606 11.28831 40712 ft 503 kts 170°
2026-02-17 12:04 45.12869 11.31440 40730 ft 501 kts 170°
2026-02-17 12:04 45.06148 11.34036 40738 ft 500 kts 170°
2026-02-17 12:05 44.99476 11.36606 40708 ft 499 kts 171°
2026-02-17 12:05 44.92779 11.39180 40743 ft 498 kts 171°
2026-02-17 12:06 44.86090 11.41743 40762 ft 499 kts 171°
2026-02-17 12:07 44.76025 11.45589 40803 ft 500 kts 171°
2026-02-17 12:07 44.69305 11.48150 40790 ft 501 kts 171°
2026-02-17 12:08 44.62571 11.50710 40790 ft 501 kts 171°
2026-02-17 12:08 44.55839 11.53264 40789 ft 501 kts 171°
2026-02-17 12:09 44.49103 11.55813 40786 ft 501 kts 171°
2026-02-17 12:09 44.42358 11.58358 40791 ft 502 kts 171°
2026-02-17 12:10 44.36748 11.60471 40772 ft 503 kts 171°
2026-02-17 12:10 44.29981 11.63013 40776 ft 504 kts 171°
2026-02-17 12:11 44.19798 11.66828 40774 ft 506 kts 171°
2026-02-17 12:11 44.12999 11.69368 40792 ft 507 kts 171°
2026-02-17 12:12 44.06194 11.71906 40788 ft 506 kts 171°
2026-02-17 12:12 43.99391 11.74433 40776 ft 505 kts 171°
2026-02-17 12:13 43.92647 11.76935 40758 ft 504 kts 171°
2026-02-17 12:13 43.89241 11.78194 40319 ft 508 kts 171°
2026-02-17 12:13 43.85829 11.79460 39820 ft 508 kts 171°
2026-02-17 12:14 43.82418 11.80727 39318 ft 507 kts 171°
2026-02-17 12:14 43.79007 11.81984 38770 ft 508 kts 172°
2026-02-17 12:14 43.75585 11.83229 38189 ft 510 kts 172°
2026-02-17 12:15 43.68659 11.85469 36940 ft 511 kts 174°
2026-02-17 12:15 43.65194 11.86536 36356 ft 511 kts 173°
2026-02-17 12:15 43.61714 11.87607 35793 ft 512 kts 173°
2026-02-17 12:15 43.58226 11.88691 35159 ft 515 kts 173°
2026-02-17 12:16 43.54719 11.89792 34500 ft 518 kts 173°
2026-02-17 12:16 43.51191 11.90909 33809 ft 522 kts 172°
2026-02-17 12:16 43.47637 11.92037 33015 ft 525 kts 172°
2026-02-17 12:16 43.44117 11.93156 32261 ft 528 kts 172°
2026-02-17 12:17 43.40532 11.94296 31516 ft 530 kts 172°
2026-02-17 12:17 43.36929 11.95438 30758 ft 532 kts 172°
2026-02-17 12:17 43.33282 11.96593 30218 ft 530 kts 172°
2026-02-17 12:17 43.29691 11.97729 29645 ft 529 kts 173°
2026-02-17 12:18 43.26154 11.98845 28980 ft 528 kts 172°
2026-02-17 12:18 43.22587 11.99969 28419 ft 523 kts 172°
2026-02-17 12:18 43.19060 12.01081 27863 ft 518 kts 172°
2026-02-17 12:19 43.12097 12.03269 26815 ft 508 kts 172°
2026-02-17 12:19 43.08669 12.04343 26349 ft 503 kts 171°
2026-02-17 12:19 43.05281 12.05406 25836 ft 497 kts 171°
2026-02-17 12:19 43.01926 12.06454 25328 ft 492 kts 171°
2026-02-17 12:20 42.98607 12.07489 24812 ft 486 kts 171°
2026-02-17 12:20 42.95320 12.08515 24363 ft 480 kts 171°
2026-02-17 12:20 42.92077 12.09524 23883 ft 476 kts 172°
2026-02-17 12:20 42.88865 12.10522 23383 ft 470 kts 171°
2026-02-17 12:21 42.85695 12.11506 22780 ft 465 kts 171°
2026-02-17 12:21 42.82599 12.12468 22259 ft 457 kts 171°
2026-02-17 12:21 42.79484 12.13431 21762 ft 450 kts 171°
2026-02-17 12:21 42.76528 12.14518 21379 ft 443 kts 162°
2026-02-17 12:22 42.73755 12.16242 21103 ft 434 kts 153°
2026-02-17 12:22 42.71118 12.18155 20850 ft 425 kts 152°
2026-02-17 12:22 42.68537 12.20068 20602 ft 422 kts 152°
2026-02-17 12:23 42.63344 12.23878 20078 ft 425 kts 153°
2026-02-17 12:23 42.60746 12.25753 19823 ft 420 kts 153°
2026-02-17 12:23 42.58170 12.27598 19570 ft 416 kts 153°
2026-02-17 12:23 42.55615 12.29421 19295 ft 413 kts 153°
2026-02-17 12:24 42.53079 12.31226 19047 ft 411 kts 153°
2026-02-17 12:24 42.50555 12.33020 18815 ft 409 kts 153°
2026-02-17 12:24 42.48052 12.34803 18404 ft 404 kts 153°
2026-02-17 12:24 42.45577 12.36562 17932 ft 400 kts 153°
2026-02-17 12:25 42.43093 12.38200 17468 ft 394 kts 160°
2026-02-17 12:25 42.40491 12.39154 17190 ft 382 kts 174°
2026-02-17 12:25 42.37869 12.39507 16891 ft 376 kts 179°
2026-02-17 12:25 42.35274 12.39774 16445 ft 372 kts 179°
2026-02-17 12:26 42.32707 12.40034 15981 ft 369 kts 179°
2026-02-17 12:26 42.30160 12.40297 15525 ft 366 kts 179°
2026-02-17 12:26 42.27626 12.40568 15055 ft 364 kts 179°
2026-02-17 12:27 42.22580 12.41121 14137 ft 362 kts 177°
2026-02-17 12:27 42.20118 12.41399 13678 ft 358 kts 177°
2026-02-17 12:27 42.17639 12.41681 13175 ft 355 kts 177°
2026-02-17 12:27 42.15193 12.41959 12731 ft 351 kts 177°
2026-02-17 12:28 42.12777 12.42235 12270 ft 347 kts 177°
2026-02-17 12:28 42.10393 12.42506 11835 ft 342 kts 177°
2026-02-17 12:28 42.08029 12.42773 11471 ft 339 kts 177°
2026-02-17 12:28 42.05692 12.43038 11210 ft 335 kts 177°
2026-02-17 12:29 42.03370 12.43301 10949 ft 334 kts 177°
2026-02-17 12:29 42.01064 12.43562 10706 ft 333 kts 176°
2026-02-17 12:29 41.98753 12.43823 10458 ft 334 kts 177°
2026-02-17 12:29 41.96431 12.44084 10206 ft 334 kts 177°
2026-02-17 12:30 41.94148 12.44342 9943 ft 325 kts 177°
2026-02-17 12:30 41.91926 12.44594 9685 ft 317 kts 177°
2026-02-17 12:30 41.89756 12.44839 9405 ft 310 kts 177°
2026-02-17 12:31 41.85503 12.45317 8870 ft 305 kts 177°
2026-02-17 12:31 41.83393 12.45554 8607 ft 304 kts 177°
2026-02-17 12:31 41.81279 12.45791 8239 ft 307 kts 176°
2026-02-17 12:31 41.79144 12.46030 7855 ft 307 kts 177°
2026-02-17 12:32 41.77024 12.46091 7467 ft 304 kts 182°
2026-02-17 12:32 41.74918 12.46011 7091 ft 302 kts 184°
2026-02-17 12:32 41.72829 12.45906 6716 ft 300 kts 184°
2026-02-17 12:32 41.70747 12.45798 6338 ft 299 kts 184°
2026-02-17 12:33 41.68687 12.45696 5952 ft 293 kts 184°
2026-02-17 12:33 41.66674 12.45595 5547 ft 286 kts 184°
2026-02-17 12:33 41.64704 12.45493 5156 ft 281 kts 184°
2026-02-17 12:33 41.62778 12.45299 4770 ft 275 kts 195°
2026-02-17 12:34 41.61171 12.44097 4364 ft 260 kts 232°
2026-02-17 12:34 41.60344 12.42076 4129 ft 242 kts 254°
2026-02-17 12:34 41.59735 12.40001 3862 ft 239 kts 254°
2026-02-17 12:35 41.58602 12.35889 3316 ft 229 kts 269°
2026-02-17 12:35 41.58951 12.33928 3071 ft 214 kts 308°
2026-02-17 12:35 41.60115 12.32887 2826 ft 202 kts 347°
2026-02-17 12:35 41.61467 12.33220 2593 ft 201 kts 23°
2026-02-17 12:36 41.62629 12.34127 2521 ft 186 kts 22°
2026-02-17 12:36 41.63790 12.34524 2486 ft 166 kts 346°
2026-02-17 12:36 41.64910 12.34143 2503 ft 167 kts 346°
2026-02-17 12:36 41.66043 12.33828 2508 ft 165 kts 344°
2026-02-17 12:37 41.67142 12.33435 2502 ft 162 kts 341°
2026-02-17 12:37 41.68223 12.33004 2488 ft 161 kts 341°
2026-02-17 12:37 41.69292 12.32561 2450 ft 163 kts 340°
2026-02-17 12:37 41.70388 12.32103 2282 ft 165 kts 340°
2026-02-17 12:38 41.71472 12.31650 2055 ft 158 kts 340°
2026-02-17 12:38 41.72466 12.31235 1847 ft 147 kts 340°
2026-02-17 12:38 41.73419 12.30835 1681 ft 142 kts 340°
2026-02-17 12:39 41.75127 12.30121 1300 ft 116 kts 338°
2026-02-17 12:39 41.75909 12.29790 1146 ft 121 kts 338°
2026-02-17 12:39 41.76720 12.29446 997 ft 121 kts 337°
2026-02-17 12:39 41.77524 12.29115 800 ft 120 kts 336°
2026-02-17 12:40 41.78334 12.28771 650 ft 124 kts 337°
2026-02-17 12:40 41.79161 12.28427 508 ft 125 kts 336°
2026-02-17 12:40 41.79991 12.28081 323 ft 124 kts 336°
2026-02-17 12:40 41.80791 12.27746 172 ft 119 kts 336°
2026-02-17 12:41 41.81581 12.27412 24 ft 117 kts 340°
2026-02-17 12:41 41.82217 12.27148 9 ft 67 kts 342°
2026-02-17 12:41 41.82492 12.27009 10 ft 31 kts 333°
2026-02-17 12:41 41.82628 12.26870 10 ft 23 kts 313°
2026-02-17 12:42 41.82715 12.26743 10 ft 14 kts 310°
2026-02-17 12:42 41.82698 12.26636 10 ft 14 kts 200°
2026-02-17 12:42 41.82589 12.26668 10 ft 20 kts 162°
2026-02-17 12:43 41.82220 12.26821 10 ft 34 kts 163°
2026-02-17 12:43 41.81996 12.26914 12 ft 33 kts 163°
2026-02-17 12:43 41.81775 12.27008 11 ft 33 kts 162°
2026-02-17 12:43 41.81557 12.27100 11 ft 33 kts 162°
2026-02-17 12:44 41.81339 12.27191 11 ft 33 kts 163°
2026-02-17 12:44 41.81120 12.27283 11 ft 33 kts 163°
2026-02-17 12:44 41.80897 12.27346 12 ft 33 kts 185°
2026-02-17 12:44 41.80688 12.27278 14 ft 30 kts 215°
2026-02-17 12:45 41.80603 12.27034 12 ft 28 kts 250°
2026-02-17 12:45 41.80538 12.26797 13 ft 26 kts 250°
2026-02-17 12:45 41.80477 12.26568 14 ft 28 kts 251°
2026-02-17 12:45 41.80402 12.26311 14 ft 31 kts 249°
2026-02-17 12:46 41.80326 12.26032 15 ft 32 kts 250°
2026-02-17 12:46 41.80251 12.25756 13 ft 30 kts 250°
2026-02-17 12:46 41.80181 12.25503 15 ft 28 kts 250°
2026-02-17 12:47 41.80102 12.25047 13 ft 23 kts 280°
2026-02-17 12:47 41.80097 12.24838 14 ft 22 kts 254°
2026-02-17 12:47 41.80043 12.24640 12 ft 24 kts 250°
2026-02-17 12:47 41.79984 12.24426 13 ft 25 kts 250°
2026-02-17 12:48 41.79930 12.24219 13 ft 23 kts 253°
2026-02-17 12:48 41.79908 12.24014 13 ft 22 kts 253°
2026-02-17 12:48 41.79856 12.23825 13 ft 21 kts 251°
2026-02-17 12:48 41.79777 12.23712 13 ft 14 kts 171°
2026-02-17 12:49 41.79678 12.23750 15 ft 17 kts 164°
2026-02-17 12:49 41.79555 12.23801 13 ft 21 kts 162°
2026-02-17 12:49 41.79406 12.23864 14 ft 24 kts 163°
2026-02-17 12:49 41.79272 12.23938 14 ft 19 kts 130°
2026-02-17 12:50 41.79290 12.24104 13 ft 19 kts 70°
2026-02-17 12:50 41.79334 12.24263 13 ft 18 kts 70°
2026-02-17 12:50 41.79300 12.24370 13 ft 14 kts 159°
2026-02-17 12:51 41.79214 12.24366 13 ft 5 kts 250°
2026-02-17 12:51 41.79209 12.24345 13 ft 0 kts 250°
2026-02-17 12:51 41.79208 12.24345 13 ft 0 kts 250°